Kirksville, MO

11:54 AM CDT on June 29, 2017 (GMT -0500)
Kirksville Regional

Weather History for KIRK - January, 2014

Change the Weather History Date:

Wednesday, January 8, 2014

  Actual Average Record
Temperature  
Mean Temperature 13 °F 26 °F  
Max Temperature 14 °F 35 °F 68 °F (2003)
Min Temperature 12 °F 17 °F -11 °F (1970)
Degree Days  
Heating Degree Days 52 39  
Month to date heating degree days 264 312  
Since 1 July heating degree days 2755 2655  
Cooling Degree Days 0 0  
Month to date cooling degree days 0 0  
Year to date cooling degree days 0 0  
Moisture  
Dew Point 8 °F    
Average Humidity 79    
Maximum Humidity 84    
Minimum Humidity 73    
Precipitation  
Precipitation 0.11 in 0.03 in 0.95 in (1937)
Month to date precipitation 0.53 0.26  
Year to date precipitation 0.53 0.26  
Sea Level Pressure  
Sea Level Pressure 30.37 in    
Wind  
Wind Speed 7 mph (NE)    
Max Wind Speed 12 mph    
Max Gust Speed -    
Visibility 5 miles    
Events Snow    
T = Trace of Precipitation, MM = Missing Value Source: NWS Daily Summary

Daily Weather History Graph

Daily Weather History Graph

Search for Another Location

Airport or City:

Trip Planner

Search our weather history database for the weather conditions in past years. The results will help you decide how hot, cold, wet, or windy it might be!

Date:

Astronomy

Jan. 08, 2014 Rise Set
Actual Time 7:32 AM CST 5:01 PM CST
Civil Twilight 7:02 AM CST 5:32 PM CST
Nautical Twilight 6:28 AM CST 6:05 PM CST
Astronomical Twilight 5:55 AM CST 6:38 PM CST
Moon 11:54 AM CST (1/8) 12:38 AM CST (1/8)
Length of Visible Light 10h 29m
Length of Day
9h 29m
First Quarter, 56% of the Moon is Illuminated
Jan 8
First Quarter
Jan 15
Full
Jan 23
Last Quarter
Jan 30
New
Feb 6
First Quarter

Hourly Weather History & Observations

Time (CST) Temp. Windchill Dew Point Humidity Pressure Visibility Wind Dir Wind Speed Gust Speed Precip Events Conditions
12:55 AM - - - N/A% 30.23 in 10.0 mi NNW 3.5 mph - N/A   Clear
1:55 AM - - - N/A% 30.24 in 10.0 mi North 3.5 mph - N/A   Clear
2:55 AM - - - N/A% 30.27 in 10.0 mi Calm Calm - N/A   Clear
3:55 AM - - - N/A% 30.27 in 10.0 mi North 3.5 mph - N/A   Clear
4:55 AM - - - N/A% 30.28 in 10.0 mi NE 6.9 mph - N/A   Overcast
5:55 AM - - - N/A% 30.29 in 10.0 mi NE 4.6 mph - N/A   Overcast
6:55 AM - - - N/A% 30.32 in 10.0 mi ENE 3.5 mph - N/A   Overcast
7:55 AM - - - N/A% 30.34 in 5.0 mi NE 9.2 mph - 0.00 in   Unknown
8:55 AM - - - N/A% 30.37 in 10.0 mi NE 11.5 mph - 0.00 in   Mostly Cloudy
9:55 AM - - - N/A% 30.39 in 10.0 mi NNE 11.5 mph - N/A   Mostly Cloudy
10:30 AM - - - N/A% 30.41 in 10.0 mi ENE 6.9 mph - N/A   Overcast
10:55 AM - - - N/A% 30.40 in 7.0 mi NE 10.4 mph - 0.00 in   Unknown
11:08 AM - - - N/A% 30.40 in 2.0 mi NE 8.1 mph - 0.00 in   Unknown
11:12 AM - - - N/A% 30.40 in 1.5 mi NE 9.2 mph - 0.00 in   Unknown
11:24 AM - - - N/A% 30.39 in 1.2 mi NE 10.4 mph - 0.00 in   Unknown
11:31 AM - - - N/A% 30.39 in 1.5 mi NE 9.2 mph - 0.01 in   Unknown
11:55 AM - - - N/A% 30.39 in 1.0 mi NE 8.1 mph - 0.01 in   Unknown
12:14 PM - - - N/A% 30.38 in - NE 6.9 mph - 0.00 in   Unknown
12:55 PM - - - N/A% 30.37 in - NNE 10.4 mph - 0.03 in   Unknown
1:09 PM - - - N/A% 30.37 in - NNE 9.2 mph - 0.01 in   Unknown
1:55 PM - - - N/A% 30.38 in 0.5 mi NE 9.2 mph - 0.03 in   Unknown
2:04 PM - - - N/A% 30.38 in 0.8 mi NE 6.9 mph - 0.00 in   Unknown
2:15 PM - - - N/A% 30.38 in 1.0 mi NE 9.2 mph - 0.01 in   Unknown
2:25 PM 14.0 °F 2.0 °F 9.0 °F 80% 30.38 in 0.8 mi NE 9.2 mph - 0.01 in Snow Light Snow
2:32 PM 14.0 °F 0.5 °F 8.1 °F 77% 30.38 in 1.0 mi NE 11.5 mph - 0.01 in Snow Light Snow
2:55 PM 14.0 °F 0.5 °F 8.1 °F 77% 30.39 in 1.0 mi NNE 11.5 mph - 0.02 in Snow Light Snow
3:08 PM 14.0 °F 0.5 °F 9.0 °F 80% 30.39 in 0.8 mi NNE 11.5 mph - 0.00 in Snow Light Snow
3:15 PM 14.0 °F 1.2 °F 9.0 °F 80% 30.39 in 1.0 mi NE 10.4 mph - 0.01 in Snow Light Snow
3:55 PM 14.0 °F 2.0 °F 9.0 °F 80% 30.40 in 1.5 mi NE 9.2 mph - 0.01 in Snow Light Snow
4:18 PM 14.0 °F 2.9 °F 9.0 °F 80% 30.40 in 1.2 mi NE 8.1 mph - 0.01 in Snow Light Snow
4:28 PM 14.0 °F 1.2 °F 9.0 °F 80% 30.40 in 1.0 mi NE 10.4 mph - 0.01 in Snow Light Snow
4:35 PM 14.0 °F 1.2 °F 9.0 °F 80% 30.40 in 1.5 mi NE 10.4 mph - 0.01 in Snow Light Snow
4:45 PM 14.0 °F 1.2 °F 9.0 °F 80% 30.40 in 2.0 mi NE 10.4 mph - 0.01 in Snow Light Snow
4:55 PM 14.0 °F 3.9 °F 9.0 °F 80% 30.40 in 2.0 mi NE 6.9 mph - 0.01 in Snow Light Snow
5:09 PM 14.0 °F 3.9 °F 9.0 °F 80% 30.41 in 4.0 mi NE 6.9 mph - 0.00 in Snow Light Snow
5:55 PM 14.0 °F 2.9 °F 9.0 °F 80% 30.41 in 8.0 mi ENE 8.1 mph - 0.00 in   Overcast
6:55 PM 14.0 °F 2.9 °F 8.1 °F 77% 30.42 in 10.0 mi ENE 8.1 mph - N/A   Overcast
7:55 PM 14.0 °F 2.9 °F 7.0 °F 74% 30.43 in 10.0 mi ENE 8.1 mph - N/A   Overcast
8:55 PM 14.0 °F 3.9 °F 7.0 °F 74% 30.43 in 10.0 mi NE 6.9 mph - N/A   Overcast
9:55 PM 12.9 °F 2.6 °F 7.0 °F 77% 30.43 in 10.0 mi ENE 6.9 mph - N/A   Overcast
10:55 PM 12.9 °F 1.6 °F 8.1 °F 81% 30.42 in 10.0 mi ENE 8.1 mph - N/A   Overcast
11:55 PM 12.9 °F 0.7 °F 7.0 °F 77% 30.41 in 10.0 mi ENE 9.2 mph - N/A   Overcast